{"data":{"norad_id":42964,"intl_designator":"2017-061K","name":"IRIDIUM 125","alt_names":[],"object_type":"PAYLOAD","status":"ACTIVE","operator":null,"country":"US","launch_date":"2017-10-09","launch_site_code":"AFWTR","launch_vehicle":null,"mission":null,"orbit_class":"UNKNOWN","rcs_meters":null,"size_class":null,"mass_kg":null,"dimensions":null,"purposes":["comms"],"wikipedia_slug":null,"has_3d_model":false,"image_url":null,"decayed_at":null,"tle_current":{"epoch":"2026-05-25T03:41:30.792768Z","epoch_age_seconds":54984,"freshness":"FRESH","line1":"1 42964U 17061K   26145.15382862  .00000054  00000+0  12157-4 0  9991","line2":"2 42964  86.3992  35.0069 0002722  82.2422 277.9083 14.34217553451551","mean_motion":14.34217553,"eccentricity":0.0002722,"inclination_deg":86.3992,"raan_deg":35.0069,"arg_perigee_deg":82.2422,"mean_anomaly_deg":277.9083,"bstar":1.2157e-5,"rev_number":45155,"period_min":100.40317781552,"perigee_km":775.71999955142,"apogee_km":779.61561968977,"semimajor_km":7155.8048096206,"source":"CELESTRAK","updated_at":"2026-05-25T13:38:14.804377Z"}}}